• In Netherlands
  • List of Countries
  • For 7 days
  • Water Temperature
  • Satellite Maps
  • Weather Map
  • Weather Widgets
  • user-avatar
    Login

    Hourly Weather Newark

    Today, 21 November, Tuesday

    Time Temperature Precipitation Wind Pressure Humidity
    00:00 +3°C° 0 mm 5 mps 764 mmHg 49%
    01:00 +3°C° 0 mm 5 mps 764 mmHg 49%
    02:00 +3°C° 0 mm 5 mps 764 mmHg 51%
    03:00 +3°C° 0 mm 5 mps 764 mmHg 53%
    04:00 +2°C° 0 mm 5 mps 764 mmHg 55%
    05:00 +2°C° 0 mm 5 mps 764 mmHg 57%
    06:00 +2°C° 0 mm 5 mps 764 mmHg 59%
    07:00 +2°C° 0 mm 5 mps 764 mmHg 61%
    08:00 +5°C° 0 mm 5 mps 764 mmHg 57%
    09:00 +7°C° 0 mm 6 mps 763 mmHg 52%
    10:00 +8°C° 0 mm 7 mps 763 mmHg 48%
    11:00 +9°C° 0 mm 6 mps 763 mmHg 45%
    12:00 +10°C° 0 mm 6 mps 762 mmHg 42%
    13:00 +13°C° 0 mm 6 mps 762 mmHg 40%
    14:00 +11°C° 0 mm 6 mps 762 mmHg 41%
    15:00 +12°C° 0 mm 5 mps 762 mmHg 41%
    16:00 +12°C° 0 mm 5 mps 761 mmHg 42%
    17:00 +10°C° 0 mm 5 mps 762 mmHg 45%
    18:00 +9°C° 0 mm 5 mps 762 mmHg 48%
    19:00 +8°C° 0 mm 4 mps 762 mmHg 51%
    20:00 +8°C° 0 mm 4 mps 762 mmHg 56%
    21:00 +7°C° 0 mm 4 mps 762 mmHg 61%
    22:00 +7°C° 0 mm 4 mps 762 mmHg 66%
    23:00 +7°C° 0 mm 4 mps 761 mmHg 70%

    Tomorrow, 22 November, Wednesday

    Time Temperature Precipitation Wind Pressure Humidity
    00:00 +8°C° 0 mm 3 mps 761 mmHg 75%
    01:00 +8°C° 0 mm 3 mps 760 mmHg 80%
    02:00 +8°C° 0 mm 3 mps 760 mmHg 82%
    03:00 +9°C° 0 mm 3 mps 759 mmHg 83%
    04:00 +9°C° 0 mm 3 mps 759 mmHg 84%
    05:00 +9°C° 0 mm 3 mps 759 mmHg 87%
    06:00 +8°C° 0 mm 3 mps 759 mmHg 90%
    07:00 +8°C° 0 mm 3 mps 759 mmHg 93%
    08:00 +9°C° 0 mm 3 mps 759 mmHg 84%
    09:00 +10°C° 0 mm 4 mps 759 mmHg 76%
    10:00 +10°C° 0 mm 5 mps 759 mmHg 67%
    11:00 +9°C° 0 mm 5 mps 759 mmHg 62%
    12:00 +9°C° 0 mm 6 mps 759 mmHg 57%
    13:00 +9°C° 0 mm 6 mps 759 mmHg 53%
    14:00 +8°C° 0 mm 6 mps 760 mmHg 51%
    15:00 +7°C° 0 mm 6 mps 760 mmHg 50%
    16:00 +5°C° 0 mm 6 mps 760 mmHg 48%
    17:00 +4°C° 0 mm 6 mps 761 mmHg 51%
    18:00 +3°C° 0 mm 6 mps 762 mmHg 54%
    19:00 +2°C° 0 mm 6 mps 763 mmHg 57%
    20:00 +1°C° 0 mm 6 mps 763 mmHg 57%
    21:00 0°C° 0 mm 5 mps 764 mmHg 58%
    22:00 -1°C° 0 mm 5 mps 764 mmHg 58%
    23:00 -1°C° 0 mm 5 mps 764 mmHg 59%

    Day after tomorrow, 23 November, Thursday

    Time Temperature Precipitation Wind Pressure Humidity
    00:00 -1°C° 0 mm 4 mps 764 mmHg 60%
    01:00 -1°C° 0 mm 4 mps 764 mmHg 61%
    02:00 -1°C° 0 mm 3 mps 764 mmHg 62%
    03:00 -1°C° 0 mm 3 mps 764 mmHg 63%
    04:00 -1°C° 0 mm 3 mps 764 mmHg 64%
    05:00 -1°C° 0 mm 3 mps 764 mmHg 64%
    06:00 -1°C° 0 mm 2 mps 764 mmHg 64%
    07:00 -1°C° 0 mm 2 mps 764 mmHg 65%
    08:00 +1°C° 0 mm 2 mps 764 mmHg 59%
    09:00 +2°C° 0 mm 2 mps 764 mmHg 53%
    10:00 +3°C° 0 mm 2 mps 764 mmHg 47%
    11:00 +4°C° 0 mm 2 mps 763 mmHg 43%
    12:00 +6°C° 0 mm 2 mps 762 mmHg 39%
    13:00 +7°C° 0 mm 2 mps 761 mmHg 34%
    14:00 +6°C° 0 mm 2 mps 761 mmHg 36%
    15:00 +6°C° 0 mm 2 mps 761 mmHg 38%
    16:00 +6°C° 0 mm 2 mps 760 mmHg 40%
    17:00 +5°C° 0 mm 2 mps 760 mmHg 43%
    18:00 +4°C° 0 mm 2 mps 761 mmHg 46%
    19:00 +4°C° 0 mm 2 mps 761 mmHg 49%
    20:00 +2°C° 0 mm 3 mps 761 mmHg 50%
    21:00 +2°C° 0 mm 3 mps 761 mmHg 52%
    22:00 +2°C° 0 mm 3 mps 761 mmHg 54%
    23:00 +2°C° 0 mm 3 mps 760 mmHg 55%

    24 November, Friday

    Time Temperature Precipitation Wind Pressure Humidity
    00:00 +1°C° 0 mm 3 mps 760 mmHg 56%
    01:00 +1°C° 0 mm 3 mps 760 mmHg 57%
    02:00 +1°C° 0 mm 3 mps 760 mmHg 57%
    03:00 +1°C° 0 mm 3 mps 760 mmHg 56%
    04:00 +1°C° 0 mm 3 mps 760 mmHg 56%
    05:00 +2°C° 0 mm 2 mps 760 mmHg 57%
    06:00 +1°C° 0 mm 2 mps 761 mmHg 58%
    07:00 +1°C° 0 mm 2 mps 761 mmHg 59%
    08:00 +3°C° 0 mm 2 mps 761 mmHg 56%
    09:00 +4°C° 0 mm 2 mps 761 mmHg 52%
    10:00 +6°C° 0 mm 2 mps 761 mmHg 49%
    11:00 +7°C° 0 mm 2 mps 761 mmHg 47%
    12:00 +9°C° 0 mm 1 mps 760 mmHg 44%
    13:00 +10°C° 0 mm 1 mps 760 mmHg 42%
    14:00 +10°C° 0 mm 1 mps 760 mmHg 45%
    15:00 +9°C° 0 mm 1 mps 760 mmHg 48%
    16:00 +9°C° 0 mm 1 mps 760 mmHg 50%
    17:00 +8°C° 0 mm 1 mps 760 mmHg 54%
    18:00 +7°C° 0 mm 1 mps 760 mmHg 57%
    19:00 +6°C° 0 mm 1 mps 760 mmHg 60%
    20:00 +5°C° 0 mm 2 mps 760 mmHg 61%
    21:00 +5°C° 0 mm 2 mps 760 mmHg 61%
    22:00 +4°C° 0 mm 2 mps 759 mmHg 62%
    23:00 +4°C° 0 mm 2 mps 759 mmHg 62%

    25 November, Saturday

    Time Temperature Precipitation Wind Pressure Humidity
    00:00 +3°C° 0 mm 3 mps 758 mmHg 61%
    01:00 +3°C° 0 mm 3 mps 758 mmHg 61%
    02:00 +2°C° 0 mm 3 mps 757 mmHg 62%
    03:00 +2°C° 0 mm 3 mps 757 mmHg 63%
    04:00 +2°C° 0 mm 3 mps 756 mmHg 63%
    05:00 +2°C° 0 mm 3 mps 756 mmHg 66%
    06:00 +2°C° 0 mm 3 mps 755 mmHg 68%
    07:00 +2°C° 0 mm 3 mps 755 mmHg 70%
    08:00 +3°C° 0 mm 3 mps 754 mmHg 66%
    09:00 +5°C° 0 mm 4 mps 754 mmHg 63%
    10:00 +6°C° 0 mm 4 mps 754 mmHg 59%
    11:00 +7°C° 0 mm 4 mps 753 mmHg 60%
    12:00 +7°C° 0 mm 4 mps 752 mmHg 61%
    13:00 +7°C° 0 mm 4 mps 752 mmHg 62%
    14:00 +7°C° 0 mm 4 mps 752 mmHg 65%
    15:00 +7°C° 0 mm 4 mps 752 mmHg 68%
    16:00 +7°C° 0 mm 3 mps 752 mmHg 71%
    17:00 +7°C° 0 mm 3 mps 752 mmHg 74%
    18:00 +5°C° 0 mm 3 mps 752 mmHg 77%
    19:00 +4°C° 0 mm 3 mps 753 mmHg 80%
    20:00 +4°C° 0 mm 3 mps 753 mmHg 81%
    21:00 +5°C° 0 mm 2 mps 753 mmHg 82%
    22:00 +4°C° 0 mm 2 mps 752 mmHg 83%
    23:00 +4°C° 0 mm 2 mps 752 mmHg 84%

    26 November, Sunday

    Time Temperature Precipitation Wind Pressure Humidity
    00:00 +4°C° 0 mm 2 mps 752 mmHg 85%
    01:00 +4°C° 0 mm 2 mps 752 mmHg 85%
    02:00 +4°C° 0 mm 2 mps 752 mmHg 86%
    03:00 +3°C° 0 mm 2 mps 752 mmHg 87%
    04:00 +3°C° 0 mm 2 mps 752 mmHg 88%
    05:00 +3°C° 0 mm 2 mps 752 mmHg 87%
    06:00 +2°C° 0 mm 3 mps 752 mmHg 87%
    07:00 +2°C° 0 mm 3 mps 752 mmHg 86%
    08:00 +3°C° 0 mm 3 mps 752 mmHg 80%
    09:00 +4°C° 0 mm 3 mps 752 mmHg 74%
    10:00 +5°C° 0 mm 3 mps 752 mmHg 69%
    11:00 +5°C° 0.1 mm 3 mps 751 mmHg 66%
    12:00 +5°C° 0.1 mm 4 mps 751 mmHg 63%
    13:00 +5°C° 0.1 mm 4 mps 751 mmHg 61%
    14:00 +5°C° 0.1 mm 5 mps 751 mmHg 60%
    15:00 +5°C° 0.1 mm 5 mps 751 mmHg 59%
    16:00 +4°C° 0.1 mm 6 mps 751 mmHg 58%
    17:00 +3°C° 0 mm 6 mps 752 mmHg 60%
    18:00 +2°C° 0 mm 6 mps 753 mmHg 62%
    19:00 +1°C° 0 mm 6 mps 753 mmHg 64%
    20:00 -1°C° 0 mm 7 mps 754 mmHg 63%
    21:00 -1°C° 0 mm 7 mps 754 mmHg 62%
    22:00 -2°C° 0 mm 7 mps 754 mmHg 61%
    23:00 -2°C° 0 mm 7 mps 754 mmHg 60%
    Show more